NOAA 16 DEB, 42427

Orbit data source: Space-Track

NOAA 16 DEB, 42427 is space debris in SSO originally from a launch on Thu, 21 Sep 2000 UTC launched from the Air Force Western Test Range (AFWTR). Debris objects in space refer to the collection of defunct objects orbiting the Earth. Examples of debris include non-operational satellites, rocket bodies, and fragments generated from explosions, collisions, or faulty payload assembly.

Loading next visibility...
NOAA 16 DEB details
Identifier
42427, 2000-055TX
Orbit
SSO
Last TLE update1 day ago
Origin
Flag of USNOAA (US)
ManufacturerUnknown
MissionSpacecraft
Bus & MotorUnknown
MassUnknown
Launch date (UTC)
2000-09-21 (24 years ago)
Launch vehicleUnknown
Launch site
Air Force Western Test Range (AFWTR)
Object type
Payload
Rocket body
Debris
Shape & HBRUnknown
Radar Cross SectionSmall (<0.1 m²)

Expand to show TLE details & history

TLE from 1 day ago
0 NOAA 16 DEB
1 42427U 00055TX  24360.85289587  .00030335  00000-0  59686-2 0  9996
2 42427  98.9151 209.5547 0047778  78.1213 282.5338 14.61769332438470
Epoch: 2024-12-25T20:28Z
Definitive object data (Epoch: 2024-12-25T20:28:10.203Z)
Latitude0.00001°
Longitude167.6715°
Altitude683.258 km
Speed7.519 km/s
True Right ascension13h 58m 13s
True Declination0° 00' 00"
Sunlit
Object was in daylight at TLE epoch
Visualization TLE readout
Latitude3.82318°
Longitude168.18127°
Altitude678.691 km
Speed7.524 km/s
Apparent Right ascension11h 51m 09s
Apparent Declination-21° 36' 52"
Sunlit
Object is in daylight
Visualization observer readout
Local Sidereal Time20:30:38
Azimuth277.97° WNW
Elevation-43.906°
Doppler factor1
Orbital elements
Apogee altitude718.324 km
Perigee altitude650.836 km
Semi-major axis7,062.717 km
Eccentricity0.0047778
Inclination98.9151°
RAAN209.5547°
Arg. of periapsis78.1213°
True anomaly281.99867°
Mean anomaly282.5338°
Eccentric anomaly282.2663°
Mean motion3.65667 °/min
BSTAR0.0059686
Orbital period98.45 mins
Loading maneuver chart data...
Loading historical data...
Loading historical data...
Loading historical data...
Loading historical data...
Loading historical data...
Loading historical data...
Loading historical data...

NOAA 16 DEB Visibility forecast

Observer location: undefined°, undefined

Span
Click to sort rows by Start time (UTC) header in descending order
Start Az.
Max El. time (UTC)
Max El. Az.
Max El.
End time (UTC)
End Az.
8 mins2024-12-27 02:36:42.509Z30.193° NE2024-12-27 02:40:42.509Z105.818° ESE34.321°2024-12-27 02:44:42.509Z171.101° S
4 mins2024-12-27 04:15:42.509Z325.191° NNW2024-12-27 04:17:42.509Z293.418° NW17.636°2024-12-27 04:19:42.509Z262.874° W
7 mins2024-12-27 13:40:42.509Z137.258° SSE2024-12-27 13:43:42.509Z69.406° E35.989°2024-12-27 13:47:42.509Z359.473° N
4 mins2024-12-27 15:19:42.509Z243.409° WSW2024-12-27 15:21:42.509Z273.814° WNW14.865°2024-12-27 15:23:42.509Z301.156° NW
|